• Join FlightAware (Why Join?)
  • Login
  • US Flag GB Flag 
22:59 EDT


 

Airport Tracker/Info


-or-


 

Live Flight TrackerFlight Track Log ✈ RPA3159 ✈ 21-May-2013 ✈ KBTV - KPHL

Flight Track Log - Related Links

Times and Time Zones

All times are in EDT time to prevent confusion due to time zone crossing. See the RPA3159 flight status page for this flight to view local times or setup timezone preferences in your user account.

Time Position Orientation Groundspeed Altitude Reporting Facility
EDT Latitude Longitude Course Direction KTS MPH feet Rate Location/Type
11:58 44.5356 -73.2642 195° South 324 373 4,600  Level Boston Center
11:59 44.1641 -73.2635 195° South  Level FlightAware Approximate
11:59 44.5642 -73.3433 297° West 256 295 6,900  Level Boston Center
12:00 44.0627 -73.3013 194° South  Level FlightAware Approximate
12:00 44.4969 -73.3917 207° Southwest 178 205 9,600  Level Boston Center
12:01 43.9606 -73.3354 194° South  Level FlightAware Approximate
12:01 44.4236 -73.4400 205° Southwest 233 268 11,600  Level Boston Center
12:02 43.8589 -73.3717 195° South  Level FlightAware Approximate
12:02 44.3586 -73.4853 206° Southwest 271 312 13,400  Level Boston Center
12:03 43.7576 -73.4098 195° South  Level FlightAware Approximate
12:03 44.2622 -73.5561 208° Southwest 315 362 15,700  Level Boston Center
12:04 43.6562 -73.4477 195° South  Level FlightAware Approximate
12:04 44.1761 -73.6153 206° Southwest 340 391 17,600  Level Boston Center
12:05 44.0900 -73.6772 207° Southwest 348 400 19,600 1,560 Climbing Boston Center
12:06 43.9997 -73.7389 206° Southwest 348 400 20,800 1,200 Climbing Boston Center
12:07 43.9178 -73.7919 205° Southwest 353 406 22,000 600 Climbing Boston Center
12:08 43.8256 -73.8558 207° Southwest 358 412 22,000  Level Boston Center
12:09 43.7372 -73.9200 208° Southwest 364 419 22,000  Level Boston Center
12:10 43.6361 -73.9864 205° Southwest 364 419 22,000  Level Boston Center
12:11 43.5478 -74.0500 208° Southwest 364 419 22,000  Level Boston Center
12:12 43.4636 -74.1050 205° Southwest 364 419 22,000  Level Boston Center
12:13 43.3772 -74.1625 206° Southwest 364 419 22,000  Level Boston Center
12:14 43.2847 -74.2256 206° Southwest 364 419 22,000  Level Boston Center
12:15 43.1961 -74.2856 206° Southwest 364 419 22,000  Level Boston Center
12:16 43.1056 -74.3483 207° Southwest 364 419 22,000  Level Boston Center
12:17 43.0169 -74.4081 206° Southwest 364 419 22,000  Level Boston Center
12:18 42.9264 -74.4675 206° Southwest 369 425 22,000  Level Boston Center
12:19 42.8378 -74.5269 206° Southwest 369 425 22,000  Level Boston Center
12:21 42.7182 -74.5685 208° Southwest  Level FlightAware Approximate
12:21 42.6500 -74.6506 208° Southwest 369 425 22,000  Level Boston Center
12:22 42.5592 -74.7092 205° Southwest 369 425 22,000  Level Boston Center
12:23 42.4703 -74.7708 207° Southwest 369 425 22,000  Level Boston Center
12:24 42.3794 -74.8292 205° Southwest 369 425 22,000  Level Boston Center
12:25 42.2886 -74.8903 206° Southwest 369 425 22,000  Level Boston Center
12:27 42.1486 -74.9806 206° Southwest 371 427 22,000 -540 Level New York Center
12:28 42.0625 -75.0561 213° Southwest 376 433 20,700 -1,380 Descending New York Center
12:29 41.9789 -75.1231 211° Southwest 371 427 19,400 -900 Descending New York Center
12:30 41.9058 -75.1853 212° Southwest 361 415 19,000 -240 Descending New York Center
12:31 41.8158 -75.2572 211° Southwest 347 399 19,000 -300 Level New York Center
12:32 41.7342 -75.3211 210° Southwest 352 405 18,400 -1,200 Descending New York Center
12:33 41.6525 -75.3878 211° Southwest 352 405 16,600 -1,800 Descending New York Center
12:34 41.5817 -75.4439 211° Southwest 345 397 14,900 -1,920 Descending New York Center
12:35 41.4956 -75.5125 211° Southwest 345 397 12,800 -1,440 Descending New York Center
12:36 41.4203 -75.5736 211° Southwest 335 386 12,000 -420 Descending New York Center
12:37 41.3428 -75.6344 211° Southwest 330 380 12,000  Level New York Center
12:38 41.2633 -75.6894 207° Southwest 330 380 12,000  Level New York Center
12:39 41.1800 -75.6889 180° South 313 360 12,000  Level New York Center
12:40 41.0883 -75.6878 179° South 331 381 12,000  Level New York Center
12:41 40.9969 -75.6867 179° South 331 381 12,000  Level New York Center
12:42 40.8947 -75.6875 180° South 331 381 12,000  Level New York Center
12:43 40.8011 -75.6836 178° South 331 381 12,000  Level New York Center
12:44 40.7114 -75.6881 182° South 331 381 12,000 -60 Level New York Center
12:45 40.6283 -75.6819 177° South 331 381 11,900  Descending New York Center
12:46 40.5458 -75.6106 147° Southeast 323 372 12,000 -420 Climbing New York Center
12:47 40.4953 -75.5169 125° Southeast 310 357 11,100 -1,140 Descending New York Center
12:48 40.4425 -75.4289 128° Southeast 310 357 9,800 -1,440 Descending New York Center
12:49 40.3711 -75.3886 157° South 304 350 8,300 -1,500 Descending New York Center
12:50 40.3000 -75.3431 154° Southeast 299 344 6,800 -1,200 Descending New York Center
12:51 40.2164 -75.2994 158° South 288 331 6,000 -420 Descending New York Center
12:52 40.1472 -75.2514 152° Southeast 288 331 6,000  Level New York Center
12:53 40.0850 -75.1878 142° Southeast 283 326 6,000  Level New York Center
12:54 40.0331 -75.1303 140° Southeast 260 299 6,000 -480 Level New York Center
12:55 39.9808 -75.0756 141° Southeast 247 284 5,100 -1,320 Descending New York Center
12:56 39.9333 -75.0333 146° Southeast 223 257 3,500 -1,800 Descending Philadelphia TRACON